Regional Weather Roundup
Issued by NWS Goodland, KS

Home | Current Version | Previous Version | Text Only | Print | Product List | Glossary On
Versions: 1 2 3 4 5 6 7 8 9 10 11 12 13 14 15 16 17 18 19 20 21 22 23 24 25 26 27 28 29 30 31 32 33 34 35 36 37 38 39 40 41 42 43 44 45 46 47 48 49 50
000
ASUS43 KGLD 200259
RWRGLD

GOODLAND FORECAST AREA HOURLY WEATHER ROUNDUP
NATIONAL WEATHER SERVICE GOODLAND KS
900 PM MDT TUE SEP 19 2017

...OFFICIAL OBSERVATIONS...

CITY           SKY/WX    TMP DP  RH WIND       PRES   REMARKS
GOODLAND KS    CLOUDY    64  40  41 N23G31    29.71R
HILL CITY KS   PTCLDY    79  35  20 S10       29.56R
IMPERIAL NEB   CLOUDY    63  30  28 N33G41    29.71R
MCCOOK NEB     CLOUDY    68  42  38 NW20G33   29.65R
AKRON CO       CLEAR     52  29  41 N30G37    29.80R
BURLINGTON CO  CLOUDY    63  38  39 N23G38    29.75R
LIMON CO       CLEAR     53  32  44 N23G35    29.81R
$$

...UNOFFICIAL OBSERVATIONS...

CITY           SKY/WX    TMP DP  RH WIND       PRES   REMARKS
LENORA KS        N/A     76  32  20 MISG        N/A
NORTON KS      CLEAR     75  27  16 S12       29.54R
SHARON SPRINGS   N/A     67  31  26 SW9         N/A
TRENTON NEB      N/A     65  32  29 N15G23      N/A
KIT CARSON CO    N/A     62  29  28 MISG        N/A
YUMA CO        FAIR      54  18  24 N23G32    29.78R
$$




USA.gov is the U.S. government's official web portal to all federal, state and local government web resources and services.